Location: Gleizolles
(44.4833°N, 6.7667°E)
Time: 18:44:17
(UTC+00:00)

N. Korean satellite - Pass Details

Date: 08 December 2021
Orbit: 446 x 492 km, 97.3° (Epoch: 17 January)

Event Time Altitude Azimuth Distance (km) Brightness Sun altitude
Rises 04:24:41 0° 20° (NNE) 2,460 10.3 -26.2°
Reaches altitude 10° 04:26:50 10° 29° (NNE) 1,582 9.4 -25.8°
Maximum altitude 04:30:00 37° 98° (E) 717 7.9 -25.3°
Drops below altitude 10° 04:33:09 10° 167° (SSE) 1,572 9.4 -24.7°
Sets 04:35:16 0° 176° (S) 2,442 10.3 -24.3°
